Location: Newark
(40.9833°N, 0.0333°W)
Time: 00:11:09
(UTC+00:00)

deb Explorer IX - Pass Details

Date: 01 November 2020
Orbit: 537 x 1105 km, 38.8° (Epoch: 02 December)

Event Time Altitude Azimuth Distance (km) Brightness Sun altitude
Rises 01:53:41 0° 190° (S) 2,950 - -51.3°
Reaches altitude 10° 01:57:45 10° 155° (SSE) 2,183 - -50.7°
Maximum altitude 01:59:13 11° 138° (SE) 2,157 - -50.5°
Drops below altitude 10° 02:00:46 10° 121° (ESE) 2,296 - -50.2°
Exits shadow 02:04:16 - 94° (E) 3,070 ? -49.7°
Sets 02:05:25 0° 89° (E) 3,404 ? -49.5°
